Date,TemperatureHighF,TemperatureAvgF,TemperatureLowF,DewpointHighF,DewpointAvgF,DewpointLowF,HumidityHigh,HumidityAvg,HumidityLow,PressureMaxIn,PressureMinIn,WindSpeedMaxMPH,WindSpeedAvgMPH,GustSpeedMaxMPH,PrecipitationSumIn
2013-3-1,34.7,33.6,31.3,31.5,30.3,27.9,88,88,87,29.54,29.50,0,0,0,0.00
2013-3-6,36.9,33.9,31.5,32.5,30.0,27.8,87,86,84,30.09,30.00,75,20,0,0.00
2013-3-7,34.7,30.9,28.9,30.4,27.1,25.3,87,86,83,30.08,29.97,75,36,0,0.00
2013-3-8,30.4,30.1,29.1,27.0,26.7,25.5,87,87,86,30.12,29.90,0,0,0,0.00
2013-3-9,30.4,30.4,30.4,27.0,27.0,27.0,87,87,87,30.30,30.10,0,0,0,0.04
2013-3-10,38.3,33.1,30.4,32.4,28.9,27.0,87,84,79,30.42,30.26,2,0,6,0.01
2013-3-11,34.2,32.9,32.0,29.8,28.8,28.0,85,85,84,30.26,30.20,0,0,0,0.00
2013-3-16,34.5,27.9,23.2,19.8,16.4,11.0,71,62,38,29.86,29.78,21,2,34,0.00
2013-3-17,43.3,27.8,20.3,18.0,12.4,6.7,77,54,27,30.25,29.84,4,1,9,0.00
2013-3-18,44.4,26.3,12.6,22.9,9.9,3.3,79,52,28,30.45,30.15,3,1,8,0.00
2013-3-19,35.1,31.0,-24.3,31.1,26.8,-59.3,87,85,13,30.33,29.62,51,2,13,0.00
2013-3-20,43.3,27.8,21.4,31.6,22.3,17.4,87,80,62,29.79,29.67,5,1,12,0.01
2013-3-21,42.1,28.6,18.0,25.8,19.4,13.9,84,70,43,29.81,29.58,2,0,7,0.08
2013-3-22,43.3,30.4,21.0,23.2,19.1,14.0,75,63,43,29.73,29.57,4,2,12,0.03
2013-3-23,41.2,30.6,23.7,23.6,20.9,17.9,80,68,46,29.79,29.68,4,2,12,0.00
2013-3-24,58.5,35.4,27.5,29.9,22.9,19.3,78,62,31,29.87,29.73,3,1,9,0.01
2013-3-25,44.1,34.8,26.4,30.9,26.6,21.4,82,72,59,29.81,29.52,5,2,12,0.00
2013-3-26,47.3,37.6,30.4,30.6,26.2,20.3,76,64,44,29.77,29.52,3,1,9,0.00
2013-3-27,54.1,38.1,27.5,30.1,24.8,20.0,76,60,36,29.86,29.74,4,1,9,0.00
2013-3-28,49.8,40.2,34.0,36.8,31.4,29.1,85,72,50,30.01,29.85,3,1,7,0.00
2013-3-29,61.3,42.0,32.0,35.2,30.7,27.4,83,66,36,30.17,29.99,3,1,9,0.00
2013-3-30,64.9,41.1,32.4,31.2,25.4,19.3,82,58,21,30.13,30.01,3,1,10,0.00
2013-3-31,37.9,35.0,27.9,29.4,27.1,21.9,79,73,71,30.14,30.06,0,0,1,0.00